Flag for United Kingdom Weather past 2 weeks in Caversham, England, United Kingdom

Now
52 °F

Cool.


Feels Like: 47 °F
Forecast: 42 / 64 °F
Wind: 17 mph from East

Location: Benson


UV Index: 3 (Moderate)

Visibility: 3 mi


Pressure: 29.62 "Hg

Humidity: 88%

Dew point: 48 °F

Location of CavershamLocation

Historic Weather in Caversham

°F

Caversham temperature yesterday

Maximum temperature yesterday: (null)
Minimum temperature yesterday: (null)
Average temperature yesterday: (null)

Past Weeks' High & Low Weather Summary

 TemperatureHumidityPressure
High61 °F (Apr 16, 5:00 PM)100% (Apr 9, 7:00 AM)30.45 "Hg (Apr 9, 7:00 AM)
Low33 °F (Apr 15, 7:00 AM)41% (Apr 14, 6:00 PM)29.60 "Hg (Apr 20, 5:00 PM)
Average49 °F75%30.13 "Hg
* Reported Apr 6 10:00 AM — Apr 20 5:00 PM, Caversham, Weather by CustomWeather, © 2014

Note: Actual official high and low records may vary slightly from our data, if they occured in-between our weather recording intervals... More about our weather records

Advertising

Historic Weather Conditions — Data for Previous 24 hours

 ConditionsComfort  
Time TempWeatherWind HumidityBarometerVisibility
5:00 PM
Apr 20
54 °FCool.17 mph90%29.60 "Hg2 mi
4:00 PM55 °FCool.17 mph91%29.60 "Hg2 mi
3:00 PM57 °FCool.22 mph82%29.62 "Hg3 mi
2:00 PM55 °FCool.20 mph89%29.65 "Hg2 mi
1:00 PM54 °FCool.18 mph87%29.68 "Hg2 mi
12:00 PM51 °FCool.15 mph91%29.72 "Hg2 mi
11:00 AM51 °FCool.17 mph88%29.73 "Hg2 mi
10:00 AM50 °FCool.16 mph87%29.75 "Hg3 mi
9:00 AM48 °FCool.17 mph90%29.77 "Hg3 mi
8:00 AM47 °FCool.15 mph91%29.78 "Hg3 mi
7:00 AM46 °FCool.14 mph92%29.81 "Hg3 mi
6:00 AM46 °FCool.15 mph92%29.83 "Hg3 mi
5:00 AM45 °FCool.15 mph93%29.85 "Hg3 mi
4:00 AM44 °FQuite cool.17 mph92%29.88 "Hg4 mi
3:00 AM44 °FQuite cool.14 mph92%29.91 "Hg4 mi
2:00 AM42 °FQuite cool.14 mph92%29.94 "Hg5 mi
1:00 AM41 °FQuite cool.N/A91%29.98 "Hg6 mi
Weather by CustomWeather, © 2014

See weather overview